Date String (YYYY-MM-DD hh:mm:ss) UTC,Instrument flags,absolute air pressure of the measurement (hPa),sample flow rate (lpm),inlet stack bypass flow (lpm),air temperature of the measurement (°C),ambient temperature measured by the external sensor (°C),aerosol sample conditioner tube jacket temperature (°C),OPC LED temperature (°C),internal box temperature (°C),relative humidity of the measurement (%),span deviation,mass concentration of particles derived from Lorenz-Mie calculation of OPC scattering (μg/m³),mass concentration of particles derived from Lorenz-Mie calculation of OPC scattering (μg/m³),mass concentration of particles derived from Lorenz-Mie calculation of OPC scattering (μg/m³)
DateTimeUTC,F1_M11,P_M11,Q1_M11,Q2_M11,T1_M11,T2_M11,T3_M11,T4_M11,T5_M11,U1_M11,ZSPAN_M11,X0_M11,X2_M11,X1_M11
2023-12-13 09:00:00,SystemResetWarning,0838.2,5.00,000.00,019.1,018.2,000.0,027.3,020.3,21.3,-002.1,0017.93,0009.57,0008.74
2023-12-13 09:01:00,SystemResetWarning,0838.2,5.01,000.00,019.1,018.2,000.0,027.3,020.3,21.4,-001.4,0017.54,0009.52,0008.70
2023-12-13 09:02:00,SystemResetWarning,0838.3,5.00,000.00,019.1,018.2,000.0,027.3,020.3,21.4,-001.8,0017.43,0009.52,0008.67
2023-12-13 09:03:00,SystemResetWarning,0838.3,5.00,000.00,019.1,018.2,000.0,027.3,020.3,21.4,-001.2,0017.65,0009.53,0008.67
2023-12-13 09:04:00,SystemResetWarning,0838.3,4.99,000.00,019.1,018.2,000.0,027.3,020.3,21.5,-000.8,0018.08,0009.56,0008.67
2023-12-13 09:05:00,SystemResetWarning,0838.3,5.00,000.00,019.1,018.2,000.0,027.3,020.3,21.5,-000.1,0018.06,0009.59,0008.72
2023-12-13 09:06:00,SystemResetWarning,0838.3,5.00,000.00,019.1,018.2,000.0,027.3,020.3,21.5,0000.0,0018.13,0009.61,0008.75
2023-12-13 09:07:00,SystemResetWarning,0838.3,5.00,000.00,019.1,018.2,000.0,027.3,020.3,21.6,0000.0,0017.96,0009.61,0008.76
2023-12-13 09:08:00,SystemResetWarning,0838.3,5.00,000.00,019.1,018.2,000.0,027.3,020.3,21.6,0000.0,0018.72,0009.68,0008.82
2023-12-13 09:09:00,SystemResetWarning,0838.3,4.99,000.00,019.1,018.2,000.0,027.3,020.3,21.6,0000.0,0018.91,0009.75,0008.91
2023-12-13 09:10:00,SystemResetWarning,0838.3,5.00,000.00,019.1,018.2,000.0,027.3,020.3,21.6,0000.6,0018.37,0009.79,0008.98
2023-12-13 09:11:00,SystemResetWarning,0838.3,5.00,000.00,019.1,018.2,000.0,027.3,020.3,21.6,0000.3,0017.57,0009.82,0009.04
2023-12-13 09:12:00,SystemResetWarning,0838.3,5.00,000.00,019.1,018.1,000.0,027.3,020.3,21.6,0000.2,0017.14,0009.83,0009.06
2023-12-13 09:13:00,SystemResetWarning,0838.4,5.00,000.00,019.1,018.1,000.0,027.3,020.3,21.6,0001.2,0017.39,0009.82,0009.08
2023-12-13 09:14:00,SystemResetWarning,0838.4,5.00,000.00,019.1,018.1,000.0,027.3,020.3,21.7,0001.3,0017.31,0009.83,0009.12
2023-12-13 09:15:00,SystemResetWarning,0838.4,5.01,000.00,019.1,018.2,000.0,027.3,020.3,21.7,0000.7,0017.00,0009.89,0009.16
2023-12-13 09:16:00,SystemResetWarning,0838.4,5.01,000.00,019.1,018.1,000.0,027.3,020.3,21.7,0000.2,0017.01,0009.89,0009.18
2023-12-13 09:17:00,SystemResetWarning,0838.4,5.00,000.00,019.1,018.1,000.0,027.3,020.3,21.7,0000.0,0016.54,0009.92,0009.20
2023-12-13 09:18:00,SystemResetWarning,0838.4,4.99,000.00,019.1,018.2,000.0,027.3,020.3,21.7,0000.1,0016.68,0009.93,0009.21
2023-12-13 09:19:00,SystemResetWarning,0838.4,4.99,000.00,019.1,018.2,000.0,027.3,020.3,21.7,0000.1,0015.93,0009.96,0009.22
2023-12-13 09:20:00,SystemResetWarning,0838.5,5.01,000.00,019.1,018.2,000.0,027.3,020.3,21.7,0000.0,0015.68,0009.96,0009.21
2023-12-13 09:21:00,SystemResetWarning,0838.5,5.00,000.00,019.1,018.2,000.0,027.3,020.3,21.7,0000.0,0015.67,0009.96,0009.20
2023-12-13 09:22:00,SystemResetWarning,0838.4,5.01,000.00,019.1,018.2,000.0,027.3,020.3,21.7,0000.0,0016.45,0009.99,0009.21
2023-12-13 09:23:00,SystemResetWarning,0838.4,4.99,000.00,019.1,018.2,000.0,027.3,020.3,21.7,0000.0,0016.81,0010.00,0009.25
2023-12-13 09:24:00,SystemResetWarning,0838.4,4.99,000.00,019.1,018.2,000.0,027.3,020.3,21.8,0000.0,0016.97,0010.07,0009.30
2023-12-13 09:25:00,SystemResetWarning,0838.4,4.99,000.00,019.1,018.2,000.0,027.3,020.3,21.8,0000.0,0016.91,0010.14,0009.36
2023-12-13 09:26:00,SystemResetWarning,0838.4,5.00,000.00,019.1,018.2,000.0,027.3,020.2,21.8,0000.0,0016.99,0010.18,0009.40
2023-12-13 09:27:00,SystemResetWarning,0838.4,4.99,000.00,019.1,018.2,000.0,027.3,020.3,21.8,0000.1,0016.99,0010.26,0009.45
2023-12-13 09:28:00,SystemResetWarning,0838.4,5.00,000.00,019.1,018.2,000.0,027.3,020.3,21.8,0000.7,0017.10,0010.33,0009.50
2023-12-13 09:29:00,SystemResetWarning,0838.4,5.00,000.00,019.1,018.2,000.0,027.3,020.3,21.9,0001.1,0017.05,0010.41,0009.54
2023-12-13 09:30:00,SystemResetWarning,0838.4,5.00,000.00,019.1,018.2,000.0,027.3,020.3,21.9,0001.1,0017.27,0010.50,0009.63
2023-12-13 09:31:00,SystemResetWarning,0838.4,5.01,000.00,019.1,018.2,000.0,027.3,020.3,21.9,0001.1,0017.60,0010.64,0009.77
2023-12-13 09:32:00,SystemResetWarning,0838.4,5.00,000.00,019.1,018.2,000.0,027.3,020.3,21.9,0001.4,0018.86,0010.80,0009.91
2023-12-13 09:33:00,SystemResetWarning,0838.4,5.00,000.00,019.1,018.2,000.0,027.3,020.3,22.0,0001.7,0018.57,0010.93,0010.02
2023-12-13 09:34:00,SystemResetWarning,0838.5,4.99,000.00,019.1,018.2,000.0,027.3,020.3,22.0,0000.8,0018.26,0011.01,0010.10
2023-12-13 09:35:00,SystemResetWarning,0838.4,4.99,000.00,019.1,018.2,000.0,027.3,020.3,22.0,0000.8,0018.45,0011.02,0010.12
2023-12-13 09:36:00,SystemResetWarning,0838.4,5.00,000.00,019.1,018.2,000.0,027.3,020.3,22.0,0001.1,0018.62,0011.00,0010.11
2023-12-13 09:37:00,SystemResetWarning,0838.5,5.00,000.00,019.1,018.1,000.0,027.3,020.3,22.0,0000.9,0019.30,0011.00,0010.09
2023-12-13 09:38:00,SystemResetWarning,0838.5,4.99,000.00,019.1,018.1,000.0,027.3,020.3,21.9,0000.1,0019.94,0010.95,0010.06
2023-12-13 09:39:00,SystemResetWarning,0838.5,5.00,000.00,019.1,018.1,000.0,027.3,020.3,21.9,0000.0,0020.45,0010.87,0009.99
2023-12-13 09:40:00,SystemResetWarning,0838.5,5.00,000.00,019.1,018.1,000.0,027.3,020.3,21.9,0000.0,0020.00,0010.79,0009.92
2023-12-13 09:41:00,SystemResetWarning,0838.5,5.00,000.00,019.1,018.1,000.0,027.3,020.3,21.9,0000.0,0019.41,0010.66,0009.80
2023-12-13 09:42:00,SystemResetWarning,0838.5,5.00,000.00,019.1,018.1,000.0,027.3,020.3,21.9,0000.0,0018.75,0010.49,0009.65
2023-12-13 09:43:00,SystemResetWarning,0838.4,5.00,000.00,019.1,018.1,000.0,027.3,020.3,21.9,0000.0,0017.72,0010.32,0009.49
2023-12-13 09:44:00,SystemResetWarning,0838.4,5.00,000.00,019.1,018.1,000.0,027.3,020.3,21.9,0000.0,0017.04,0010.12,0009.34
2023-12-13 09:45:00,SystemResetWarning,0838.4,5.00,000.00,019.1,018.1,000.0,027.3,020.3,21.9,0000.0,0016.58,0009.96,0009.19
2023-12-13 09:46:00,SystemResetWarning,0838.5,4.99,000.00,019.1,018.1,000.0,027.3,020.3,21.9,0000.0,0016.14,0009.86,0009.10
2023-12-13 09:47:00,SystemResetWarning,0838.4,5.00,000.00,019.1,018.1,000.0,027.3,020.3,21.9,0000.0,0015.78,0009.77,0009.02
2023-12-13 09:48:00,SystemResetWarning,0838.4,4.99,000.00,019.1,018.1,000.0,027.3,020.3,21.8,0000.0,0015.01,0009.67,0008.96
2023-12-13 09:49:00,SystemResetWarning,0838.4,5.00,000.00,019.1,018.1,000.0,027.3,020.3,21.8,0000.0,0014.57,0009.60,0008.89
2023-12-13 09:50:00,SystemResetWarning,0838.4,4.99,000.00,019.1,018.1,000.0,027.3,020.3,21.8,0000.0,0013.77,0009.57,0008.85
2023-12-13 09:51:00,SystemResetWarning,0838.4,5.00,000.00,019.1,018.1,000.0,027.3,020.3,21.8,0000.0,0013.68,0009.52,0008.81
2023-12-13 09:52:00,SystemResetWarning,0838.4,5.01,000.00,019.1,018.1,000.0,027.3,020.3,21.8,0000.0,0013.63,0009.48,0008.79
2023-12-13 09:53:00,SystemResetWarning,0838.4,5.01,000.00,019.1,018.1,000.0,027.3,020.3,21.8,0000.0,0014.34,0009.45,0008.79
2023-12-13 09:54:00,SystemResetWarning,0838.4,5.00,000.00,019.1,018.1,000.0,027.3,020.3,21.8,0000.0,0014.66,0009.38,0008.77
2023-12-13 09:55:00,SystemResetWarning,0838.4,4.99,000.00,019.1,018.1,000.0,027.3,020.3,21.8,0000.0,0014.66,0009.35,0008.75
2023-12-13 09:56:00,SystemResetWarning,0838.4,4.99,000.00,019.1,018.1,000.0,027.3,020.3,21.8,0000.0,0014.70,0009.36,0008.74
2023-12-13 09:57:00,SystemResetWarning,0838.5,4.99,000.00,019.1,018.1,000.0,027.3,020.3,21.8,0000.0,0014.46,0009.35,0008.72
2023-12-13 09:58:00,SystemResetWarning,0838.5,5.02,000.00,019.1,018.1,000.0,027.3,020.3,21.8,0000.0,0014.37,0009.32,0008.71
2023-12-13 09:59:00,SystemResetWarning,0838.5,5.01,000.00,019.0,018.1,000.0,027.3,020.3,21.8,0000.0,0014.31,0009.30,0008.69
